Weather History for Huntington, WV

Change the Weather History Date:

Friday, January 24, 2014

  Actual Average Record
Temperature  
Mean Temperature 9 °F 34 °F  
Max Temperature 21 °F 42 °F 77 °F (1943)
Min Temperature -3 °F 25 °F -15 °F (1963)
Degree Days  
Heating Degree Days 56 31  
Month to date heating degree days 867 750  
Since 1 July heating degree days 2615 2505  
Cooling Degree Days 0 0  
Month to date cooling degree days 0 0  
Year to date cooling degree days 0 0  
Moisture  
Dew Point -2 °F    
Average Humidity 60    
Maximum Humidity 79    
Minimum Humidity 41    
Precipitation  
Precipitation T in 0.09 in 1.76 in (1937)
Month to date precipitation 2.12 2.28  
Year to date precipitation 2.12 2.28  
Snow  
Snow 0.00 in - - ()
Month to date snowfall 6.7  
Since 1 September snowfall 14.2  
Snow Depth 2.00 in    
Sea Level Pressure  
Sea Level Pressure 30.44 in    
Wind  
Wind Speed 9 mph (SSW)    
Max Wind Speed 18 mph    
Max Gust Speed 26 mph    
Visibility 10 miles    
Events      
T = Trace of Precipitation, MM = Missing Value Source: NWS Daily Summary

Daily Weather History Graph

Daily Weather History Graph

Search for Another Location

Airport:

Trip Planner

Search our weather history database for the weather conditions in past years. The results will help you decide how hot, cold, wet, or windy it might be!

Date:

Astronomy

Jan. 24, 2014 Rise Set
Actual Time 7:41 AM EST 5:43 PM EST
Civil Twilight 7:13 AM EST 6:12 PM EST
Nautical Twilight 6:40 AM EST 6:44 PM EST
Astronomical Twilight 6:09 AM EST 7:15 PM EST
Moon 1:08 AM EST (1/24) 12:00 PM EST (1/24)
Length of Visible Light 10h 58m
Length of Day
10h 02m
Last Quarter, 45% of the Moon is Illuminated
Jan 24
Last Quarter
Jan 30
New
Feb 6
First Quarter
Feb 14
Full
Feb 22
Last Quarter

Hourly Weather History & Observations

Time (EST) Temp. Windchill Dew Point Humidity Pressure Visibility Wind Dir Wind Speed Gust Speed Precip Events Conditions
12:51 AM 3.0 °F -4.4 °F -7.1 °F 63% 30.63 in 10.0 mi WSW 3.5 mph - N/A   Clear
1:51 AM 1.0 °F -6.7 °F -5.1 °F 75% 30.64 in 10.0 mi South 3.5 mph - N/A   Clear
2:51 AM -0.9 °F -11.0 °F -5.1 °F 83% 30.66 in 10.0 mi SSW 4.6 mph - N/A   Clear
3:51 AM -0.9 °F -11.0 °F -6.0 °F 79% 30.68 in 10.0 mi SSW 4.6 mph - N/A   Clear
4:51 AM -0.9 °F -11.0 °F -7.1 °F 75% 30.67 in 10.0 mi SSW 4.6 mph - N/A   Clear
5:51 AM -2.0 °F -13.9 °F -7.1 °F 79% 30.66 in 10.0 mi SSW 5.8 mph - N/A   Clear
6:51 AM -2.0 °F -15.4 °F -7.1 °F 79% 30.66 in 10.0 mi SSW 6.9 mph - N/A   Clear
7:51 AM -2.0 °F -13.9 °F -7.1 °F 79% 30.64 in 10.0 mi SSW 5.8 mph - N/A   Clear
8:51 AM -0.0 °F -13.0 °F -6.0 °F 76% 30.63 in 10.0 mi SSW 6.9 mph - N/A   Clear
9:51 AM 3.0 °F -9.3 °F -2.9 °F 76% 30.62 in 10.0 mi SSW 6.9 mph - N/A   Clear
10:51 AM 6.1 °F -8.7 °F -2.0 °F 69% 30.60 in 10.0 mi SSW 10.4 mph - 0.00 in   Scattered Clouds
11:51 AM 9.0 °F -2.2 °F -0.0 °F 67% 30.57 in 10.0 mi SSW 6.9 mph - N/A   Scattered Clouds
12:51 PM 12.0 °F -2.0 °F 1.0 °F 61% 30.51 in 10.0 mi SSW 11.5 mph 17.3 mph N/A   Clear
1:51 PM 15.1 °F 1.1 °F 1.9 °F 56% 30.45 in 10.0 mi South 12.7 mph 18.4 mph N/A   Clear
2:51 PM 18.0 °F 4.8 °F 1.9 °F 50% 30.39 in 10.0 mi South 12.7 mph 18.4 mph N/A   Clear
3:51 PM 19.0 °F 6.8 °F 1.0 °F 46% 30.33 in 10.0 mi South 11.5 mph 18.4 mph N/A   Clear
4:51 PM 19.9 °F 8.6 °F 1.0 °F 44% 30.30 in 10.0 mi South 10.4 mph - N/A   Clear
5:51 PM 19.0 °F 8.2 °F -0.0 °F 43% 30.26 in 10.0 mi SSW 9.2 mph - N/A   Clear
6:51 PM 19.0 °F 10.0 °F 1.0 °F 46% 30.20 in 10.0 mi South 6.9 mph - N/A   Clear
7:51 PM 19.0 °F 9.0 °F 1.0 °F 46% 30.15 in 10.0 mi South 8.1 mph - N/A   Clear
8:51 PM 18.0 °F 6.1 °F 1.0 °F 48% 30.11 in 10.0 mi South 10.4 mph - N/A   Clear
9:51 PM 19.9 °F 5.7 °F 1.0 °F 44% 30.04 in 10.0 mi SSW 16.1 mph 24.2 mph N/A   Clear
10:51 PM 21.0 °F 6.6 °F 1.0 °F 42% 29.99 in 10.0 mi SSW 17.3 mph 25.3 mph N/A   Clear
11:51 PM 21.0 °F 9.3 °F -0.9 °F 38% 29.96 in 10.0 mi SSW 11.5 mph 23.0 mph N/A   Clear